Location: Bullenkuhlen
(53.7689°N, 9.7495°E)
Time: 23:10:50
(UTC+00:00)

Cosmos 1980 Rocket - Pass Details

Date: 09 April 2020
Orbit: 828 x 851 km, 71.0° (Epoch: 04 June)

Event Time Altitude Azimuth Distance (km) Brightness Sun altitude
Rises 23:20:15 0° 315° (NW) 3,391 6.0 -28.2°
Reaches altitude 10° 23:24:39 10° 282° (WNW) 2,455 4.7 -28.2°
Enters shadow 23:26:04 11° 268° (W) 2,370 4.5 -28.2°
